{"data":{"norad_id":58611,"epoch":"2026-09-20T01:08:52.692576Z","epoch_age_seconds":188854,"freshness":"STALE","line1":"1 58611U 23200Y   26263.04783209 -.00000159  00000+0  37686-5 0  9990","line2":"2 58611  43.0018 151.3597 0001705 271.0449  89.0207 15.27574845153339","mean_motion":15.27574845,"eccentricity":0.0001705,"inclination_deg":43.0018,"raan_deg":151.3597,"arg_perigee_deg":271.0449,"mean_anomaly_deg":89.0207,"bstar":3.7686e-6,"rev_number":15333,"period_min":94.267066829056,"perigee_km":481.89469714636,"apogee_km":484.23436686877,"semimajor_km":6861.2015320076,"source":"CELESTRAK","updated_at":"2026-09-21T09:00:33.921570Z"}}